Tracking 34747 objects as of 16-Jul-2026
HD Live streaming from Space Station
objects crossing your sky now

ONEWEB-0261

Track ONEWEB-0261 now!
10-day predictions
ONEWEB-0261 is classified as:


NORAD ID: 48979
Int'l Code: 2021-061N
Perigee: 1,203.3 km
Apogee: 1,206.5 km
Inclination: 87.9 °
Period: 109.4 minutes
Semi major axis: 7575 km
RCS: Unknown
Launch date: July 1, 2021
Source: United Kingdom (UK)
Launch site: VOSTOCHNY COSMODROME (VOSTO)
Your satellite tracking list
Your tracking list is empty




NASA's NSSDC Master Catalog

Two Line Element Set (TLE):
1 48979U 21060N   26197.09007392  .00000046  00000-0  86370-4 0  9999
2 48979  87.9079 223.0420 0002091 102.3968 257.7397 13.16594755243468
Source of the keplerian elements: AFSPC